• In Russia
  • List of Countries
  • For 7 days
  • Water Temperature
  • Satellite Maps
  • Weather Map
  • Weather Widgets
  • user-avatar
    Login

    Hourly Weather Koszeg

    Today, 17 July, Tuesday

    Time Temperature Precipitation Wind Pressure Humidity
    00:00 +19°C° 0 mm 1 mps 734 mmHg 73%
    01:00 +19°C° 0 mm 1 mps 734 mmHg 75%
    02:00 +17°C° 0 mm 2 mps 734 mmHg 76%
    03:00 +17°C° 0 mm 2 mps 734 mmHg 77%
    04:00 +17°C° 0 mm 2 mps 733 mmHg 78%
    05:00 +18°C° 0 mm 3 mps 734 mmHg 73%
    06:00 +20°C° 0 mm 3 mps 734 mmHg 69%
    07:00 +21°C° 0 mm 4 mps 734 mmHg 64%
    08:00 +23°C° 0.1 mm 4 mps 734 mmHg 58%
    09:00 +26°C° 0.1 mm 5 mps 734 mmHg 52%
    10:00 +28°C° 0.1 mm 5 mps 734 mmHg 46%
    11:00 +28°C° 0.1 mm 5 mps 734 mmHg 45%
    12:00 +29°C° 0.1 mm 6 mps 734 mmHg 43%
    13:00 +29°C° 0.1 mm 6 mps 734 mmHg 41%
    14:00 +29°C° 0.1 mm 6 mps 734 mmHg 43%
    15:00 +29°C° 0.1 mm 6 mps 734 mmHg 44%
    16:00 +28°C° 0.1 mm 6 mps 734 mmHg 46%
    17:00 +27°C° 0 mm 5 mps 734 mmHg 50%
    18:00 +25°C° 0 mm 5 mps 734 mmHg 55%
    19:00 +23°C° 0 mm 4 mps 734 mmHg 60%
    20:00 +22°C° 0 mm 4 mps 734 mmHg 63%
    21:00 +21°C° 0 mm 3 mps 735 mmHg 66%
    22:00 +20°C° 0 mm 3 mps 735 mmHg 69%
    23:00 +19°C° 0 mm 3 mps 735 mmHg 71%

    Tomorrow, 18 July, Wednesday

    Time Temperature Precipitation Wind Pressure Humidity
    00:00 +19°C° 0 mm 3 mps 735 mmHg 73%
    01:00 +18°C° 0 mm 3 mps 735 mmHg 75%
    02:00 +18°C° 0 mm 3 mps 735 mmHg 76%
    03:00 +18°C° 0 mm 3 mps 735 mmHg 76%
    04:00 +18°C° 0 mm 3 mps 735 mmHg 76%
    05:00 +19°C° 0 mm 4 mps 735 mmHg 71%
    06:00 +21°C° 0 mm 5 mps 735 mmHg 65%
    07:00 +22°C° 0 mm 6 mps 735 mmHg 60%
    08:00 +24°C° 0 mm 6 mps 736 mmHg 54%
    09:00 +26°C° 0 mm 7 mps 736 mmHg 48%
    10:00 +28°C° 0 mm 8 mps 736 mmHg 41%
    11:00 +28°C° 0 mm 8 mps 736 mmHg 40%
    12:00 +29°C° 0 mm 8 mps 736 mmHg 38%
    13:00 +31°C° 0 mm 8 mps 735 mmHg 37%
    14:00 +29°C° 0 mm 8 mps 735 mmHg 40%
    15:00 +28°C° 0 mm 8 mps 735 mmHg 43%
    16:00 +28°C° 0 mm 7 mps 735 mmHg 46%
    17:00 +26°C° 0 mm 6 mps 735 mmHg 52%
    18:00 +24°C° 0 mm 6 mps 736 mmHg 58%
    19:00 +23°C° 0 mm 5 mps 736 mmHg 64%
    20:00 +22°C° 0 mm 5 mps 736 mmHg 67%
    21:00 +21°C° 0 mm 4 mps 736 mmHg 69%
    22:00 +21°C° 0 mm 4 mps 737 mmHg 71%
    23:00 +20°C° 0 mm 4 mps 737 mmHg 72%

    Day after tomorrow, 19 July, Thursday

    Time Temperature Precipitation Wind Pressure Humidity
    00:00 +20°C° 0 mm 4 mps 737 mmHg 73%
    01:00 +20°C° 0 mm 4 mps 737 mmHg 74%
    02:00 +19°C° 0 mm 4 mps 737 mmHg 76%
    03:00 +19°C° 0 mm 4 mps 737 mmHg 77%
    04:00 +19°C° 0 mm 4 mps 737 mmHg 78%
    05:00 +20°C° 0 mm 4 mps 737 mmHg 73%
    06:00 +21°C° 0 mm 5 mps 737 mmHg 68%
    07:00 +22°C° 0 mm 6 mps 737 mmHg 64%
    08:00 +24°C° 0 mm 6 mps 737 mmHg 58%
    09:00 +26°C° 0 mm 6 mps 737 mmHg 52%
    10:00 +27°C° 0 mm 7 mps 737 mmHg 47%
    11:00 +28°C° 0 mm 7 mps 737 mmHg 46%
    12:00 +28°C° 0 mm 7 mps 737 mmHg 44%
    13:00 +29°C° 0 mm 6 mps 737 mmHg 43%
    14:00 +29°C° 0 mm 6 mps 737 mmHg 43%
    15:00 +29°C° 0 mm 6 mps 737 mmHg 44%
    16:00 +29°C° 0 mm 6 mps 737 mmHg 44%
    17:00 +27°C° 0 mm 5 mps 737 mmHg 50%
    18:00 +26°C° 0 mm 4 mps 737 mmHg 56%
    19:00 +25°C° 0 mm 3 mps 737 mmHg 61%
    20:00 +22°C° 0 mm 3 mps 737 mmHg 67%
    21:00 +21°C° 0 mm 2 mps 738 mmHg 73%
    22:00 +19°C° 0 mm 2 mps 738 mmHg 78%
    23:00 +19°C° 0 mm 2 mps 738 mmHg 79%

    20 July, Friday

    Time Temperature Precipitation Wind Pressure Humidity
    00:00 +18°C° 0 mm 2 mps 738 mmHg 79%
    01:00 +18°C° 0 mm 2 mps 738 mmHg 80%
    02:00 +18°C° 0 mm 2 mps 738 mmHg 79%
    03:00 +17°C° 0 mm 2 mps 738 mmHg 79%
    04:00 +17°C° 0 mm 2 mps 737 mmHg 79%
    05:00 +19°C° 0 mm 2 mps 738 mmHg 72%
    06:00 +20°C° 0 mm 2 mps 738 mmHg 66%
    07:00 +23°C° 0 mm 2 mps 738 mmHg 60%
    08:00 +25°C° 0 mm 2 mps 738 mmHg 55%
    09:00 +27°C° 0 mm 2 mps 738 mmHg 49%
    10:00 +29°C° 0 mm 2 mps 738 mmHg 44%
    11:00 +30°C° 0 mm 2 mps 738 mmHg 41%
    12:00 +30°C° 0 mm 2 mps 737 mmHg 38%
    13:00 +31°C° 0 mm 2 mps 737 mmHg 36%
    14:00 +31°C° 0 mm 2 mps 737 mmHg 36%
    15:00 +31°C° 0 mm 2 mps 736 mmHg 37%
    16:00 +31°C° 0 mm 2 mps 736 mmHg 37%
    17:00 +30°C° 0 mm 2 mps 736 mmHg 43%
    18:00 +28°C° 0 mm 2 mps 736 mmHg 50%
    19:00 +27°C° 0 mm 1 mps 735 mmHg 56%
    20:00 +25°C° 0 mm 1 mps 736 mmHg 61%
    21:00 +24°C° 0 mm 1 mps 736 mmHg 66%
    22:00 +22°C° 0 mm 1 mps 736 mmHg 71%
    23:00 +22°C° 0.7 mm 1 mps 736 mmHg 75%

    21 July, Saturday

    Time Temperature Precipitation Wind Pressure Humidity
    00:00 +21°C° 0.7 mm 1 mps 736 mmHg 79%
    01:00 +21°C° 0.7 mm 1 mps 735 mmHg 82%
    02:00 +20°C° 0.6 mm 1 mps 735 mmHg 84%
    03:00 +20°C° 0.6 mm 1 mps 735 mmHg 86%
    04:00 +20°C° 0.6 mm 1 mps 735 mmHg 87%
    05:00 +21°C° 0.4 mm 1 mps 735 mmHg 85%
    06:00 +22°C° 0.4 mm 1 mps 735 mmHg 82%
    07:00 +23°C° 0.4 mm 1 mps 735 mmHg 80%
    08:00 +25°C° 0.3 mm 1 mps 735 mmHg 73%
    09:00 +27°C° 0.3 mm 1 mps 735 mmHg 66%
    10:00 +28°C° 0.3 mm 2 mps 735 mmHg 59%
    11:00 +29°C° 0.6 mm 2 mps 734 mmHg 56%
    12:00 +30°C° 0.6 mm 2 mps 734 mmHg 54%
    13:00 +31°C° 0.6 mm 2 mps 734 mmHg 52%
    14:00 +30°C° 1.1 mm 2 mps 734 mmHg 57%
    15:00 +28°C° 1.1 mm 3 mps 733 mmHg 62%
    16:00 +27°C° 1.1 mm 3 mps 733 mmHg 67%
    17:00 +25°C° 7.3 mm 4 mps 733 mmHg 75%
    18:00 +23°C° 7.3 mm 5 mps 733 mmHg 82%
    19:00 +21°C° 7.3 mm 5 mps 733 mmHg 89%
    20:00 +20°C° 1.8 mm 5 mps 733 mmHg 89%
    21:00 +20°C° 1.8 mm 5 mps 733 mmHg 89%
    22:00 +19°C° 1.8 mm 4 mps 733 mmHg 89%
    23:00 +19°C° 0.2 mm 3 mps 733 mmHg 90%

    22 July, Sunday

    Time Temperature Precipitation Wind Pressure Humidity
    00:00 +19°C° 0.2 mm 3 mps 733 mmHg 91%
    01:00 +18°C° 0.2 mm 2 mps 734 mmHg 91%
    02:00 +18°C° 0.6 mm 2 mps 733 mmHg 92%
    03:00 +18°C° 0.6 mm 3 mps 733 mmHg 92%
    04:00 +18°C° 0.6 mm 3 mps 733 mmHg 92%
    05:00 +18°C° 0.4 mm 3 mps 733 mmHg 91%
    06:00 +19°C° 0.4 mm 3 mps 733 mmHg 90%
    07:00 +19°C° 0.4 mm 4 mps 733 mmHg 89%
    08:00 +19°C° 0.9 mm 4 mps 733 mmHg 89%
    09:00 +19°C° 0.9 mm 4 mps 734 mmHg 88%
    10:00 +20°C° 0.9 mm 4 mps 734 mmHg 88%
    11:00 +20°C° 0.6 mm 5 mps 734 mmHg 85%
    12:00 +21°C° 0.6 mm 5 mps 734 mmHg 83%
    13:00 +21°C° 0.6 mm 6 mps 734 mmHg 80%
    14:00 +22°C° 0.2 mm 6 mps 734 mmHg 77%
    15:00 +22°C° 0.2 mm 7 mps 734 mmHg 73%
    16:00 +22°C° 0.2 mm 7 mps 734 mmHg 70%
    17:00 +21°C° 0 mm 7 mps 734 mmHg 72%
    18:00 +21°C° 0 mm 6 mps 734 mmHg 74%
    19:00 +20°C° 0 mm 6 mps 735 mmHg 76%
    20:00 +19°C° 0 mm 6 mps 735 mmHg 77%
    21:00 +19°C° 0 mm 6 mps 735 mmHg 78%
    22:00 +19°C° 0 mm 6 mps 736 mmHg 79%
    23:00 +17°C° 0 mm 6 mps 736 mmHg 79%
    Show more